DLH4EF EDDM-LGSR

Flight info

Callsign DLH4EF
Flight time N/A
Altitude 37000
Route VAVOR3E VAVOR M867 RADIZ DCT REKTI DCT NEMEK DCT MAVAR DCT BITLA DCT KEA UL607 GENDO L607 NETIS M601 PEXAN
Aircraft A21N/M-SDE2E3FGHIRWXY/LB1

Departure

Time N/A
Airport Munich Airport (EDDM)

Arrival

Time 2026-05-01 08:12
Airport Santorini International Airport (LGSR)
Time Latitude Longitude Altitude Speed Heading
2026-05-01 07:23 40.41819 21.78375 37228 ft 500 kts 149°
2026-05-01 07:24 40.33306 21.86240 37232 ft 500 kts 149°
2026-05-01 07:24 40.27650 21.91442 37231 ft 499 kts 149°
2026-05-01 07:25 40.21908 21.96712 37227 ft 502 kts 149°
2026-05-01 07:25 40.16199 22.01950 37234 ft 502 kts 149°
2026-05-01 07:26 40.10519 22.07157 37228 ft 502 kts 149°
2026-05-01 07:26 40.04782 22.12397 37233 ft 501 kts 149°
2026-05-01 07:27 39.99073 22.17597 37215 ft 504 kts 150°
2026-05-01 07:27 39.93336 22.22808 37231 ft 503 kts 150°
2026-05-01 07:28 39.87583 22.28034 37231 ft 503 kts 150°
2026-05-01 07:28 39.81845 22.33246 37235 ft 503 kts 150°
2026-05-01 07:29 39.76112 22.38442 37216 ft 503 kts 150°
2026-05-01 07:29 39.70383 22.43607 37230 ft 504 kts 150°
2026-05-01 07:30 39.64618 22.48791 37236 ft 504 kts 150°
2026-05-01 07:30 39.58853 22.53964 37239 ft 504 kts 150°
2026-05-01 07:31 39.53072 22.59144 37237 ft 505 kts 150°
2026-05-01 07:32 39.38595 22.72069 37235 ft 505 kts 150°
2026-05-01 07:33 39.29902 22.79798 37222 ft 504 kts 150°
2026-05-01 07:33 39.21255 22.87454 37216 ft 502 kts 151°
2026-05-01 07:34 39.12645 22.95062 37228 ft 502 kts 151°
2026-05-01 07:35 39.06873 23.00139 37242 ft 502 kts 151°
2026-05-01 07:35 39.01105 23.05208 37235 ft 502 kts 151°
2026-05-01 07:36 38.95328 23.10274 37210 ft 503 kts 151°
2026-05-01 07:36 38.89546 23.15346 37219 ft 502 kts 152°
2026-05-01 07:37 38.80908 23.22896 37220 ft 502 kts 152°
2026-05-01 07:37 38.75135 23.27938 37208 ft 502 kts 152°
2026-05-01 07:38 38.69339 23.32984 37185 ft 506 kts 152°
2026-05-01 07:39 38.60598 23.40571 37195 ft 506 kts 152°
2026-05-01 07:39 38.51880 23.48115 37187 ft 500 kts 152°
2026-05-01 07:40 38.46159 23.53054 37136 ft 498 kts 152°
2026-05-01 07:40 38.40375 23.58032 37180 ft 505 kts 152°
2026-05-01 07:41 38.34533 23.63056 37179 ft 506 kts 152°
2026-05-01 07:42 38.25766 23.70570 37171 ft 506 kts 152°
2026-05-01 07:42 38.19934 23.75560 37157 ft 503 kts 152°
2026-05-01 07:43 38.14162 23.80488 37152 ft 501 kts 153°
2026-05-01 07:43 38.05438 23.87913 37158 ft 506 kts 153°
2026-05-01 07:44 37.93713 23.97866 37109 ft 507 kts 153°
2026-05-01 07:45 37.87865 24.02817 37136 ft 508 kts 153°
2026-05-01 07:45 37.82008 24.07772 36703 ft 505 kts 153°
2026-05-01 07:46 37.79079 24.10242 36409 ft 508 kts 153°
2026-05-01 07:46 37.76129 24.12725 36156 ft 509 kts 153°
2026-05-01 07:46 37.70207 24.17710 35640 ft 512 kts 153°
2026-05-01 07:47 37.67233 24.20208 35357 ft 514 kts 154°
2026-05-01 07:47 37.64245 24.22714 35116 ft 517 kts 154°
2026-05-01 07:47 37.61243 24.25231 34874 ft 519 kts 154°
2026-05-01 07:47 37.58232 24.27752 34636 ft 520 kts 154°
2026-05-01 07:48 37.52176 24.32648 34180 ft 521 kts 156°
2026-05-01 07:48 37.49101 24.35064 33914 ft 522 kts 156°
2026-05-01 07:48 37.46017 24.37484 33646 ft 522 kts 156°
2026-05-01 07:49 37.42934 24.39904 33382 ft 521 kts 156°
2026-05-01 07:49 37.36807 24.44711 32093 ft 519 kts 155°
2026-05-01 07:49 37.33728 24.47120 31232 ft 520 kts 155°
2026-05-01 07:50 37.30662 24.49519 30395 ft 519 kts 155°
2026-05-01 07:50 37.24542 24.54301 28437 ft 515 kts 155°
2026-05-01 07:50 37.21539 24.56645 27470 ft 513 kts 155°
2026-05-01 07:51 37.18510 24.59006 26465 ft 512 kts 154°
2026-05-01 07:51 37.15472 24.61368 25480 ft 513 kts 154°
2026-05-01 07:51 37.12441 24.63724 24549 ft 512 kts 153°
2026-05-01 07:52 37.06445 24.68386 23015 ft 498 kts 153°
2026-05-01 07:52 37.04509 24.69889 22535 ft 493 kts 153°
2026-05-01 07:52 37.01601 24.72143 22066 ft 491 kts 153°
2026-05-01 07:53 36.95823 24.76618 21315 ft 483 kts 153°
2026-05-01 07:53 36.92981 24.78814 20761 ft 476 kts 153°
2026-05-01 07:53 36.90181 24.80977 20153 ft 470 kts 153°
2026-05-01 07:53 36.87424 24.83112 19608 ft 462 kts 153°
2026-05-01 07:54 36.82025 24.87291 18459 ft 452 kts 153°
2026-05-01 07:55 36.74167 24.93523 16501 ft 445 kts 146°
2026-05-01 07:55 36.70316 24.99490 15417 ft 445 kts 117°
2026-05-01 07:56 36.68725 25.10688 14067 ft 432 kts 97°
2026-05-01 07:56 36.67274 25.17803 13072 ft 420 kts 121°
2026-05-01 07:57 36.65548 25.20671 12518 ft 410 kts 138°
2026-05-01 07:57 36.61313 25.25200 11739 ft 389 kts 144°
2026-05-01 07:58 36.57341 25.29362 11310 ft 362 kts 143°
2026-05-01 07:58 36.53637 25.33283 10941 ft 337 kts 143°
2026-05-01 07:59 36.50181 25.36944 10544 ft 318 kts 144°
2026-05-01 07:59 36.46819 25.40501 9739 ft 316 kts 143°
2026-05-01 08:00 36.40226 25.47472 8259 ft 306 kts 143°
2026-05-01 08:01 36.35053 25.51590 7183 ft 286 kts 153°
2026-05-01 08:01 36.33346 25.52847 6873 ft 285 kts 153°
2026-05-01 08:01 36.31649 25.54102 6562 ft 283 kts 153°
2026-05-01 08:02 36.28295 25.56590 5934 ft 278 kts 153°
2026-05-01 08:02 36.26597 25.57646 5620 ft 267 kts 170°
2026-05-01 08:03 36.23193 25.56836 5000 ft 259 kts 218°
2026-05-01 08:03 36.21932 25.55279 4542 ft 256 kts 240°
2026-05-01 08:03 36.21226 25.51167 3563 ft 253 kts 282°
2026-05-01 08:04 36.22969 25.47597 2787 ft 243 kts 324°
2026-05-01 08:04 36.26108 25.46479 2269 ft 238 kts
2026-05-01 08:05 36.29176 25.47903 1751 ft 232 kts 24°
2026-05-01 08:05 36.30590 25.48765 1674 ft 219 kts 24°
2026-05-01 08:05 36.31909 25.49550 1672 ft 204 kts 23°
2026-05-01 08:06 36.34317 25.50920 1663 ft 172 kts 18°
2026-05-01 08:06 36.36279 25.50539 1353 ft 148 kts 320°
2026-05-01 08:07 36.37591 25.48922 933 ft 120 kts 351°
2026-05-01 08:07 36.39248 25.48486 1066 ft 139 kts 338°
2026-05-01 08:08 36.40261 25.48403 1052 ft 159 kts 13°
2026-05-01 08:08 36.41409 25.50755 1020 ft 185 kts 88°
2026-05-01 08:09 36.39680 25.53206 1018 ft 205 kts 154°
2026-05-01 08:09 36.38455 25.53851 1002 ft 181 kts 155°
2026-05-01 08:09 36.37354 25.54431 985 ft 168 kts 155°
2026-05-01 08:10 36.35124 25.54545 970 ft 170 kts 217°
2026-05-01 08:10 36.34609 25.52203 1001 ft 142 kts 302°
2026-05-01 08:11 36.35621 25.50328 947 ft 127 kts 315°
2026-05-01 08:11 36.37130 25.49298 549 ft 123 kts 341°
2026-05-01 08:12 36.38693 25.48510 166 ft 115 kts 336°
2026-05-01 08:12 36.39410 25.48160 74 ft 102 kts 338°
2026-05-01 08:12 36.40135 25.47813 95 ft 28 kts 338°
2026-05-01 08:13 36.40272 25.47746 94 ft 17 kts 338°
2026-05-01 08:13 36.40315 25.47673 96 ft 9 kts 248°
2026-05-01 08:13 36.40284 25.47579 96 ft 6 kts 249°
2026-05-01 08:14 36.40272 25.47538 95 ft 4 kts 250°
2026-05-01 08:14 36.40263 25.47509 96 ft 4 kts 236°
2026-05-01 08:14 36.40231 25.47502 94 ft 6 kts 166°
2026-05-01 08:14 36.40184 25.47518 95 ft 8 kts 159°
2026-05-01 08:15 36.40140 25.47547 96 ft 8 kts 130°
2026-05-01 08:15 36.40138 25.47609 97 ft 4 kts 63°
2026-05-01 08:15 36.40173 25.47620 93 ft 7 kts 344°
2026-05-01 08:16 36.40229 25.47599 98 ft 10 kts 340°
2026-05-01 08:16 36.40301 25.47562 98 ft 12 kts 338°
2026-05-01 08:16 36.40381 25.47527 95 ft 8 kts 340°
2026-05-01 08:16 36.40425 25.47482 95 ft 4 kts 268°
2026-05-01 08:17 36.40410 25.47438 98 ft 7 kts 233°
2026-05-01 08:17 36.40380 25.47429 95 ft 3 kts 160°
2026-05-01 08:17 36.40355 25.47441 97 ft 5 kts 159°
2026-05-01 08:17 36.40327 25.47452 95 ft 4 kts 179°
2026-05-01 08:18 36.40314 25.47429 95 ft 3 kts 247°
2026-05-01 08:18 36.40307 25.47409 97 ft 0 kts 249°